Weather History for Cheyenne, WY

Change the Weather History Date:

Friday, October 4, 2013

  Actual Average Record
Temperature  
Mean Temperature 32 °F 50 °F  
Max Temperature 37 °F 63 °F 82 °F (1963)
Min Temperature 26 °F 37 °F 23 °F (1899)
Degree Days  
Heating Degree Days 33 15  
Month to date heating degree days 71 57  
Since 1 July heating degree days 253 338  
Cooling Degree Days 0 0  
Month to date cooling degree days 0 0  
Year to date cooling degree days 520 348  
Moisture  
Dew Point 27 °F    
Average Humidity 84    
Maximum Humidity 92    
Minimum Humidity 75    
Precipitation  
Precipitation 0.47 in 0.03 in 0.78 in (1895)
Month to date precipitation 0.82 0.15  
Year to date precipitation 16.20 14.08  
Snow  
Snow 4.70 in 0.10 in 3.50 in (1919)
Month to date snowfall 4.7 0.5  
Since 1 July snowfall 4.7 1.8  
Snow Depth 2.00 in    
Sea Level Pressure  
Sea Level Pressure 30.03 in    
Wind  
Wind Speed 20 mph (NNW)    
Max Wind Speed 30 mph    
Max Gust Speed 44 mph    
Visibility 4 miles    
Events Fog , Rain , Snow    
T = Trace of Precipitation, MM = Missing Value Source: NWS Daily Summary

Daily Weather History Graph

Daily Weather History Graph

Search for Another Location

Airport:

Trip Planner

Search our weather history database for the weather conditions in past years. The results will help you decide how hot, cold, wet, or windy it might be!

Date:

Astronomy

Oct. 04, 2013 Rise Set
Actual Time 6:59 AM MDT 6:35 PM MDT
Civil Twilight 6:31 AM MDT 7:03 PM MDT
Nautical Twilight 5:59 AM MDT 7:34 PM MDT
Astronomical Twilight 5:27 AM MDT 8:07 PM MDT
Moon 6:37 AM MDT (10/4) 6:19 PM MDT (10/4)
Length of Visible Light 12h 31m
Length of Day
11h 36m
Waning Crescent, 0% of the Moon is Illuminated
Oct 4
Waning Crescent
Oct 4
New
Oct 11
First Quarter
Oct 18
Full
Oct 26
Last Quarter

Hourly Weather History & Observations

Time (MDT) Temp. Windchill Dew Point Humidity Pressure Visibility Wind Dir Wind Speed Gust Speed Precip Events Conditions
12:24 AM 39.2 °F 31.6 °F 37.4 °F 93% 29.85 in 4.0 mi North 12.7 mph - 0.00 in Rain Light Rain
12:53 AM 37.0 °F 30.4 °F 36.0 °F 96% 29.79 in 2.5 mi NNW 9.2 mph 19.6 mph 0.03 in Rain Rain
1:00 AM 37.4 °F 28.9 °F 35.6 °F 93% 29.86 in 4.0 mi North 13.8 mph 19.6 mph 0.02 in Rain Rain
1:11 AM 37.4 °F 29.8 °F 35.6 °F 93% 29.86 in 5.0 mi North 11.5 mph 20.7 mph 0.04 in Rain Light Rain
1:38 AM 35.6 °F 26.2 °F 35.6 °F 100% 29.87 in 9.0 mi North 15.0 mph 23.0 mph 0.06 in Rain Light Rain
1:53 AM 35.1 °F 24.8 °F 34.0 °F 96% 29.79 in 8.0 mi North 17.3 mph 21.9 mph 0.06 in   Overcast
2:53 AM 32.0 °F 20.1 °F 30.0 °F 92% 29.78 in 2.0 mi North 19.6 mph 32.2 mph 0.01 in Snow Light Snow
2:59 AM 32.0 °F 20.8 °F 30.2 °F 93% 29.86 in 2.0 mi North 17.3 mph 32.2 mph 0.00 in Snow Light Snow
3:13 AM 32.0 °F 22.1 °F 30.2 °F 93% 29.86 in 1.2 mi North 13.8 mph 27.6 mph 0.00 in Snow Light Snow
3:39 AM 30.2 °F 19.8 °F 28.4 °F 93% 29.87 in 0.8 mi North 13.8 mph 32.2 mph 0.01 in Snow Light Snow
3:53 AM 30.9 °F 19.8 °F 28.9 °F 92% 29.84 in 0.8 mi NNW 16.1 mph 23.0 mph 0.02 in Snow Light Snow
4:53 AM 30.9 °F 20.7 °F 28.9 °F 92% 29.87 in 0.5 mi North 13.8 mph 35.7 mph 0.06 in Fog , Snow Snow
5:53 AM 30.0 °F 16.9 °F 28.0 °F 92% 29.90 in 0.8 mi North 21.9 mph 31.1 mph 0.04 in Snow Light Snow
6:02 AM 30.2 °F 18.1 °F 28.4 °F 93% 29.91 in 1.0 mi North 18.4 mph 31.1 mph 0.00 in Snow Light Snow
6:37 AM 30.2 °F 18.9 °F 28.4 °F 93% 29.93 in 1.0 mi North 16.1 mph 25.3 mph 0.01 in Snow Light Snow
6:53 AM 30.0 °F 20.0 °F 28.9 °F 96% 29.94 in 0.8 mi North 12.7 mph 23.0 mph 0.02 in Snow Light Snow
7:53 AM 30.0 °F 18.7 °F 28.0 °F 92% 29.97 in 0.5 mi North 16.1 mph 25.3 mph 0.01 in Fog , Snow Snow
8:01 AM 30.2 °F 18.1 °F 28.4 °F 93% 29.97 in 0.2 mi North 18.4 mph 21.9 mph 0.00 in Fog , Snow Heavy Snow
8:14 AM 30.2 °F 18.9 °F 28.4 °F 93% 29.97 in 0.5 mi North 16.1 mph 27.6 mph 0.01 in Fog , Snow Snow
8:53 AM 30.0 °F 17.5 °F 28.0 °F 92% 30.00 in 0.5 mi NNW 19.6 mph 28.8 mph 0.02 in Fog , Snow Snow
9:24 AM 30.2 °F 17.4 °F 28.4 °F 93% 30.00 in 0.8 mi NNW 20.7 mph 29.9 mph 0.01 in Snow Light Snow
9:37 AM 30.2 °F 19.3 °F 28.4 °F 93% 30.00 in 1.0 mi NNW 15.0 mph 28.8 mph 0.01 in Snow Light Snow
9:53 AM 30.0 °F 17.9 °F 27.0 °F 88% 30.02 in 1.0 mi NNW 18.4 mph 27.6 mph 0.01 in Snow Light Snow
10:09 AM 30.2 °F 17.4 °F 26.6 °F 86% 30.02 in 0.8 mi NNW 20.7 mph 29.9 mph 0.00 in Snow Light Snow
10:18 AM 30.2 °F 17.1 °F 26.6 °F 86% 30.02 in 1.0 mi NW 21.9 mph 32.2 mph 0.00 in Snow Light Snow
10:53 AM 30.9 °F 18.4 °F 27.0 °F 85% 30.04 in 1.0 mi NNW 20.7 mph 29.9 mph 0.01 in Snow Light Snow
11:53 AM 30.9 °F 17.8 °F 28.0 °F 89% 30.07 in 1.0 mi NNW 23.0 mph 32.2 mph 0.00 in Snow Light Snow
12:53 PM 30.9 °F 19.4 °F 27.0 °F 85% 30.11 in 1.0 mi NNW 17.3 mph 27.6 mph 0.00 in Snow Light Snow
1:20 PM 30.2 °F 17.4 °F 26.6 °F 86% 30.07 in 1.0 mi NNW 20.7 mph 33.4 mph 0.00 in Snow Light Snow
1:42 PM 30.2 °F 16.8 °F 26.6 °F 86% 30.07 in 0.8 mi NNW 23.0 mph 34.5 mph 0.00 in Snow Light Snow
1:53 PM 30.9 °F 17.5 °F 27.0 °F 85% 30.12 in 0.8 mi NNW 24.2 mph 39.1 mph 0.00 in Snow Light Snow
2:32 PM 30.2 °F 15.4 °F 26.6 °F 86% 30.09 in 1.0 mi NNW 28.8 mph 39.1 mph 0.00 in Snow Light Snow
2:53 PM 30.0 °F 16.9 °F 26.1 °F 85% 30.17 in 1.0 mi NNW 21.9 mph 39.1 mph 0.01 in Snow Light Snow
3:53 PM 30.0 °F 16.6 °F 25.0 °F 82% 30.20 in 1.2 mi NW 23.0 mph 33.4 mph 0.00 in Snow Light Snow
4:11 PM 30.2 °F 17.1 °F 24.8 °F 80% 30.13 in 2.5 mi NNW 21.9 mph 33.4 mph 0.00 in Snow Light Snow
4:18 PM 30.2 °F 17.1 °F 24.8 °F 80% 30.14 in 6.0 mi NW 21.9 mph 34.5 mph 0.00 in Snow Light Snow
4:53 PM 28.9 °F 14.5 °F 24.1 °F 82% 30.24 in 10.0 mi NW 25.3 mph 33.4 mph 0.00 in   Overcast
5:53 PM 28.9 °F 14.8 °F 21.9 °F 75% 30.26 in 10.0 mi NW 24.2 mph 31.1 mph N/A   Mostly Cloudy
6:53 PM 28.9 °F 16.9 °F 21.9 °F 75% 30.26 in 10.0 mi NW 17.3 mph 25.3 mph N/A   Mostly Cloudy
7:53 PM 28.9 °F 15.4 °F 21.0 °F 72% 30.26 in 10.0 mi NW 21.9 mph 32.2 mph N/A   Clear
8:53 PM 27.0 °F 13.9 °F 19.9 °F 75% 30.27 in 10.0 mi NNW 18.4 mph 31.1 mph N/A   Clear
9:53 PM 27.0 °F 13.9 °F 19.0 °F 72% 30.26 in 10.0 mi NW 18.4 mph 31.1 mph N/A   Clear
10:53 PM 27.0 °F 11.9 °F 19.0 °F 72% 30.26 in 10.0 mi NW 25.3 mph 40.3 mph N/A   Clear
11:53 PM 27.0 °F 11.6 °F 19.0 °F 72% 30.25 in 10.0 mi NW 26.5 mph 35.7 mph N/A   Clear